User: anonymous   Login
Location: Unspecified
(0.0000°N, 0.0000°E)
Time: 05:26:50
(UTC+00:00)
Language:

AAUSAT3 - Orbit

View from above orbital plane
View from above orbital plane
View from above satellite
View from above satellite

Ground track
Ground track

The orbit data is extracted from the following two-line orbital elements,

1 39087U 13009B   18324.56836005  .00000052  00000-0  33082-4 0  9998
2 39087  98.5027 169.0283 0012008 189.2254 170.8708 14.35670886300328
Epoch (UTC): 20 November 2018 13:38:26
Eccentricity: 0.0012008
inclination: 98.5027°
perigee height: 764 km
apogee height: 781 km
right ascension of ascending node: 169.0283°
argument of perigee: 189.2254°
revolutions per day: 14.35670886
mean anomaly at epoch: 170.8708°
orbit number at epoch: 30032

The dashed part of the orbit path shows where the satellite is in the earth's shadow,  

DLR